When you browse on this site, cookies collect data to enhance your experience and personalize the content and advertising you see.
Visit our Privacy Policy to learn more. By continuing to use the site, you agree to this use of cookies and data.
  • In Romania
  • List of Countries
  • For 7 days
  • Water Temperature
  • Satellite Maps
  • Weather Map
  • Weather Widgets
  • user-avatar
    Login

    Hourly Weather Lorient

    Today, 26 June, Wednesday

    Time Temperature Precipitation Wind Pressure Humidity
    00:00 +17°C° 0 mm 4 mps 763 mmHg 91%
    01:00 +16°C° 0 mm 5 mps 763 mmHg 92%
    02:00 +16°C° 0 mm 5 mps 763 mmHg 92%
    03:00 +16°C° 0 mm 5 mps 762 mmHg 93%
    04:00 +17°C° 0.4 mm 5 mps 762 mmHg 93%
    05:00 +17°C° 0.4 mm 6 mps 762 mmHg 93%
    06:00 +19°C° 0.4 mm 6 mps 762 mmHg 93%
    07:00 +20°C° 0.7 mm 7 mps 762 mmHg 92%
    08:00 +22°C° 0.7 mm 8 mps 762 mmHg 90%
    09:00 +23°C° 0.7 mm 8 mps 762 mmHg 89%
    10:00 +26°C° 0 mm 8 mps 762 mmHg 85%
    11:00 +27°C° 0 mm 8 mps 762 mmHg 81%
    12:00 +29°C° 0 mm 8 mps 762 mmHg 77%
    13:00 +31°C° 0 mm 8 mps 761 mmHg 76%
    14:00 +31°C° 0 mm 8 mps 761 mmHg 74%
    15:00 +32°C° 0 mm 7 mps 761 mmHg 73%
    16:00 +32°C° 0 mm 6 mps 761 mmHg 75%
    17:00 +30°C° 0 mm 5 mps 761 mmHg 78%
    18:00 +30°C° 0 mm 4 mps 761 mmHg 80%
    19:00 +28°C° 0 mm 3 mps 761 mmHg 83%
    20:00 +26°C° 0 mm 2 mps 762 mmHg 87%
    21:00 +24°C° 0 mm 2 mps 762 mmHg 90%
    22:00 +24°C° 0 mm 2 mps 762 mmHg 92%
    23:00 +25°C° 0 mm 3 mps 762 mmHg 95%

    Tomorrow, 27 June, Thursday

    Time Temperature Precipitation Wind Pressure Humidity
    00:00 +25°C° 0 mm 3 mps 762 mmHg 97%
    01:00 +25°C° 0 mm 4 mps 762 mmHg 97%
    02:00 +25°C° 0 mm 5 mps 762 mmHg 97%
    03:00 +25°C° 0 mm 5 mps 762 mmHg 97%
    04:00 +24°C° 0 mm 6 mps 762 mmHg 96%
    05:00 +23°C° 0 mm 6 mps 762 mmHg 95%
    06:00 +23°C° 0 mm 7 mps 762 mmHg 94%
    07:00 +24°C° 0 mm 7 mps 762 mmHg 91%
    08:00 +26°C° 0 mm 7 mps 762 mmHg 89%
    09:00 +27°C° 0 mm 7 mps 762 mmHg 87%
    10:00 +28°C° 0 mm 7 mps 762 mmHg 84%
    11:00 +29°C° 0 mm 6 mps 762 mmHg 81%
    12:00 +32°C° 0 mm 6 mps 762 mmHg 78%
    13:00 +33°C° 0 mm 6 mps 762 mmHg 76%
    14:00 +33°C° 0 mm 6 mps 761 mmHg 74%
    15:00 +34°C° 0 mm 6 mps 761 mmHg 72%
    16:00 +34°C° 0 mm 6 mps 761 mmHg 75%
    17:00 +33°C° 0 mm 5 mps 761 mmHg 78%
    18:00 +33°C° 0 mm 5 mps 760 mmHg 80%
    19:00 +32°C° 0 mm 5 mps 761 mmHg 83%
    20:00 +30°C° 0 mm 5 mps 761 mmHg 86%
    21:00 +29°C° 0 mm 5 mps 761 mmHg 90%
    22:00 +28°C° 0 mm 5 mps 761 mmHg 91%
    23:00 +27°C° 0 mm 4 mps 761 mmHg 92%

    Day after tomorrow, 28 June, Friday

    Time Temperature Precipitation Wind Pressure Humidity
    00:00 +26°C° 0 mm 4 mps 761 mmHg 94%
    01:00 +25°C° 0 mm 4 mps 761 mmHg 94%
    02:00 +25°C° 0 mm 5 mps 760 mmHg 95%
    03:00 +23°C° 0 mm 5 mps 760 mmHg 95%
    04:00 +23°C° 0 mm 5 mps 760 mmHg 93%
    05:00 +22°C° 0 mm 5 mps 760 mmHg 91%
    06:00 +22°C° 0 mm 5 mps 760 mmHg 89%
    07:00 +23°C° 0 mm 5 mps 760 mmHg 86%
    08:00 +25°C° 0 mm 5 mps 760 mmHg 84%
    09:00 +26°C° 0 mm 5 mps 760 mmHg 81%
    10:00 +27°C° 0 mm 5 mps 760 mmHg 79%
    11:00 +29°C° 0 mm 4 mps 760 mmHg 77%
    12:00 +30°C° 0 mm 4 mps 760 mmHg 75%
    13:00 +30°C° 0 mm 3 mps 760 mmHg 75%
    14:00 +31°C° 0 mm 3 mps 760 mmHg 75%
    15:00 +31°C° 0 mm 3 mps 760 mmHg 75%
    16:00 +30°C° 0 mm 3 mps 760 mmHg 78%
    17:00 +29°C° 0 mm 3 mps 759 mmHg 82%
    18:00 +28°C° 0 mm 3 mps 759 mmHg 86%
    19:00 +26°C° 0 mm 3 mps 760 mmHg 89%
    20:00 +25°C° 0 mm 2 mps 760 mmHg 92%
    21:00 +24°C° 0 mm 2 mps 760 mmHg 95%
    22:00 +23°C° 0 mm 2 mps 760 mmHg 95%
    23:00 +23°C° 0 mm 2 mps 760 mmHg 95%

    29 June, Saturday

    Time Temperature Precipitation Wind Pressure Humidity
    00:00 +23°C° 0 mm 2 mps 760 mmHg 95%
    01:00 +21°C° 0 mm 2 mps 760 mmHg 94%
    02:00 +21°C° 0 mm 3 mps 759 mmHg 94%
    03:00 +21°C° 0 mm 3 mps 759 mmHg 94%
    04:00 +21°C° 0 mm 3 mps 759 mmHg 94%
    05:00 +21°C° 0 mm 2 mps 759 mmHg 94%
    06:00 +23°C° 0 mm 2 mps 759 mmHg 93%
    07:00 +24°C° 0 mm 2 mps 759 mmHg 91%
    08:00 +24°C° 0 mm 2 mps 759 mmHg 88%
    09:00 +25°C° 0 mm 2 mps 759 mmHg 85%
    10:00 +25°C° 0 mm 3 mps 759 mmHg 84%
    11:00 +25°C° 0 mm 4 mps 759 mmHg 82%
    12:00 +25°C° 0 mm 5 mps 759 mmHg 81%
    13:00 +26°C° 0 mm 5 mps 759 mmHg 77%
    14:00 +26°C° 0 mm 5 mps 760 mmHg 74%
    15:00 +26°C° 0 mm 5 mps 760 mmHg 71%
    16:00 +26°C° 0 mm 5 mps 760 mmHg 71%
    17:00 +25°C° 0 mm 5 mps 760 mmHg 71%
    18:00 +23°C° 0 mm 6 mps 760 mmHg 71%
    19:00 +21°C° 0 mm 5 mps 761 mmHg 76%
    20:00 +19°C° 0 mm 4 mps 761 mmHg 80%
    21:00 +17°C° 0 mm 4 mps 761 mmHg 85%
    22:00 +16°C° 0 mm 3 mps 762 mmHg 87%
    23:00 +14°C° 0 mm 3 mps 762 mmHg 89%

    30 June, Sunday

    Time Temperature Precipitation Wind Pressure Humidity
    00:00 +13°C° 0 mm 3 mps 762 mmHg 92%
    01:00 +13°C° 0 mm 3 mps 762 mmHg 92%
    02:00 +13°C° 0 mm 2 mps 762 mmHg 93%
    03:00 +13°C° 0 mm 2 mps 762 mmHg 94%
    04:00 +14°C° 0 mm 1 mps 762 mmHg 92%
    05:00 +15°C° 0 mm 1 mps 762 mmHg 91%
    06:00 +14°C° 0 mm 0 mps 763 mmHg 90%
    07:00 +18°C° 0 mm 1 mps 763 mmHg 85%
    08:00 +19°C° 0 mm 1 mps 763 mmHg 79%
    09:00 +20°C° 0 mm 2 mps 763 mmHg 74%
    10:00 +21°C° 0 mm 2 mps 763 mmHg 72%
    11:00 +23°C° 0 mm 2 mps 763 mmHg 69%
    12:00 +22°C° 0 mm 3 mps 763 mmHg 67%
    13:00 +22°C° 0 mm 3 mps 763 mmHg 68%
    14:00 +22°C° 0 mm 3 mps 763 mmHg 68%
    15:00 +23°C° 0 mm 4 mps 763 mmHg 69%
    16:00 +22°C° 0 mm 4 mps 763 mmHg 72%
    17:00 +22°C° 0 mm 4 mps 763 mmHg 74%
    18:00 +22°C° 0 mm 4 mps 763 mmHg 77%
    19:00 +21°C° 0.1 mm 4 mps 763 mmHg 81%
    20:00 +19°C° 0.1 mm 4 mps 763 mmHg 84%
    21:00 +18°C° 0.1 mm 4 mps 763 mmHg 88%
    22:00 +17°C° 0.2 mm 4 mps 764 mmHg 89%
    23:00 +16°C° 0.2 mm 3 mps 764 mmHg 90%

    1 July, Monday

    Time Temperature Precipitation Wind Pressure Humidity
    00:00 +14°C° 0.2 mm 3 mps 764 mmHg 92%
    01:00 +13°C° 0 mm 4 mps 764 mmHg 92%
    02:00 +13°C° 0 mm 5 mps 764 mmHg 92%
    03:00 +13°C° 0 mm 5 mps 763 mmHg 93%
    04:00 +13°C° 0 mm 5 mps 764 mmHg 92%
    05:00 +13°C° 0 mm 4 mps 764 mmHg 91%
    06:00 +14°C° 0 mm 4 mps 764 mmHg 89%
    07:00 +15°C° 0 mm 4 mps 765 mmHg 85%
    08:00 +17°C° 0 mm 4 mps 765 mmHg 80%
    09:00 +18°C° 0 mm 4 mps 765 mmHg 75%
    10:00 +19°C° 0 mm 4 mps 765 mmHg 72%
    11:00 +20°C° 0 mm 4 mps 765 mmHg 69%
    12:00 +21°C° 0 mm 4 mps 765 mmHg 66%
    13:00 +21°C° 0 mm 4 mps 765 mmHg 68%
    14:00 +21°C° 0 mm 5 mps 765 mmHg 69%
    15:00 +21°C° 0 mm 5 mps 765 mmHg 71%
    16:00 +20°C° 0 mm 5 mps 765 mmHg 72%
    17:00 +19°C° 0 mm 6 mps 765 mmHg 74%
    18:00 +17°C° 0 mm 6 mps 765 mmHg 75%
    19:00 +15°C° 0 mm 6 mps 765 mmHg 80%
    20:00 +13°C° 0 mm 5 mps 765 mmHg 85%
    21:00 +12°C° 0 mm 5 mps 766 mmHg 90%
    22:00 +10°C° 0 mm 5 mps 766 mmHg 92%
    23:00 +10°C° 0 mm 5 mps 766 mmHg 93%
    Show more